Theta_e
308 310 312 311 309 307 306 309 310 308 309 311 310 310 311 309 306 306 307 306 306 307 307 306 308 308 307 307 308 309 309 311 313 313 315 317 320 322 326 326 329 331 331 330
309 310 310 309 308 310 310 311 310 308 308 310 310 310 309 310 310 310 310 311 309 307 304 304 304 305 306 306 307 308 309 310 312 313 313 316 318 320 322 324 324 327 328 327
310 310 308 310 309 310 310 310 310 312 310 308 309 310 309 308 308 308 308 309 310 309 308 304 300 302 303 304 306 307 308 309 311 312 313 314 315 318 318 321 320 322 323 326
310 309 310 310 311 310 311 308 310 311 312 312 309 314 311 310 310 309 310 309 307 305 304 303 300 300 302 304 304 306 307 309 310 310 313 313 315 313 315 317 320 320 321 320
311 310 311 311 311 309 311 308 309 310 311 311 311 313 311 309 311 311 312 310 306 305 303 303 300 301 302 302 303 305 306 308 308 309 312 314 314 314 315 316 316 315 315 316
309 308 310 311 310 310 308 309 309 307 309 315 311 313 311 311 311 311 310 309 307 306 303 301 300 300 301 301 303 305 306 308 308 309 311 312 312 312 311 312 310 310 311 311
311 311 310 309 311 309 310 312 313 312 313 316 309 311 313 311 309 309 311 309 306 305 304 301 299 298 299 301 303 304 306 307 307 309 310 310 310 312 312 313 310 308 306 307
314 314 310 308 311 312 310 311 313 311 313 313 310 315 315 309 308 306 305 305 305 304 302 300 298 298 299 301 302 303 305 306 305 307 308 308 308 310 309 312 310 309 309 311
313 314 309 308 309 311 310 313 310 313 297 310 312 311 310 309 308 308 308 307 307 305 302 300 297 298 299 301 302 303 305 305 303 306 306 305 306 306 305 305 305 304 303 305
313 316 309 309 309 309 310 309 314 310 313 312 314 313 315 314 312 310 309 309 307 305 301 298 297 298 299 301 302 304 305 303 303 305 306 306 305 305 304 304 303 302 302 300
311 313 311 309 309 311 310 311 311 311 311 314 312 318 308 311 310 311 309 308 307 305 301 298 297 298 299 300 302 303 304 303 303 305 305 304 303 302 301 302 302 301 297 297
311 314 319 311 308 307 309 311 310 315 312 310 312 319 308 309 309 308 307 306 305 303 300 297 296 297 297 299 301 303 303 303 303 305 304 302 302 301 299 299 300 299 297 293
313 317 320 319 314 310 311 310 312 311 310 313 316 320 306 306 308 307 308 305 303 302 299 296 295 295 296 297 299 301 302 302 302 302 303 300 300 299 298 298 298 296 295 291
315 314 319 321 319 312 312 310 310 314 317 316 316 318 313 311 309 308 305 303 302 300 299 296 295 294 295 296 298 298 299 300 301 300 300 298 297 297 297 297 296 295 294 291
315 315 314 316 312 312 312 312 311 313 315 317 318 315 315 313 310 308 305 304 303 302 299 298 297 295 294 295 296 296 297 298 298 298 297 297 298 297 294 293 294 293 291 288
313 314 312 316 316 313 315 312 311 311 313 313 315 316 315 311 309 310 309 307 306 305 302 301 298 295 295 295 295 295 295 296 296 296 295 295 294 293 292 292 290 289 287 286
313 311 314 317 313 316 318 316 316 312 311 312 314 314 314 311 310 309 308 307 307 306 305 303 301 299 298 297 297 294 294 294 293 294 294 293 293 291 290 290 288 287 285 284
314 314 313 317 314 319 315 311 314 315 314 311 312 313 312 310 308 307 307 307 306 304 304 303 301 301 301 300 297 296 294 293 292 291 291 291 291 290 289 288 287 286 284 283
312 313 316 317 318 316 315 309 311 314 317 314 311 311 312 312 308 309 303 304 306 304 301 299 299 298 299 299 297 294 292 291 290 290 290 290 289 288 287 286 285 284 283 282
310 313 315 316 318 318 310 303 304 310 319 312 312 313 312 310 311 314 303 300 300 296 295 295 295 295 295 295 293 292 290 289 288 289 289 289 290 289 287 285 284 283 282 282
308 311 314 316 317 315 308 300 305 317 314 296 305 311 311 310 309 301 297 298 296 295 295 294 293 293 293 292 291 289 288 288 289 289 289 288 288 288 287 285 283 283 283 283
306 310 312 313 314 315 299 302 310 304 299 296 300 302 301 301 300 299 297 296 295 295 293 291 289 289 289 290 290 288 288 288 288 288 287 287 286 286 285 284 283 283 283 282
307 307 304 308 309 303 299 302 301 298 297 296 297 298 299 299 298 297 296 295 293 288 289 288 288 286 287 288 290 287 287 288 288 287 287 286 286 285 285 284 283 282 282 282
297 299 303 304 303 304 301 299 299 298 297 295 294 293 296 297 296 296 290 291 291 286 288 288 287 286 286 287 288 288 287 287 287 286 285 285 285 285 284 284 284 283 283 283
297 298 300 302 301 301 301 299 299 298 296 296 293 291 293 294 291 290 289 287 288 287 287 288 287 286 286 288 288 287 287 287 287 286 286 286 285 285 284 284 284 284 283 283
296 299 302 301 299 299 299 298 297 296 296 293 292 291 290 291 291 287 286 286 284 284 286 286 285 285 284 287 287 287 287 287 288 287 286 286 286 285 285 284 283 284 285 284
Wind_Speed
3 4 7 16 6 3 5 4 4 5 4 4 8 10 17 9 7 12 14 14 15 16 21 24 32 33 33 31 31 31 29 27 26 24 23 23 25 26 25 27 28 31 32 34
4 7 12 6 6 5 4 3 5 6 3 6 8 13 13 16 12 15 17 18 18 16 10 15 24 29 36 38 36 33 33 31 30 28 26 26 27 26 27 25 27 29 33 34
8 5 2 8 5 6 5 6 5 8 3 3 5 8 8 7 8 12 18 22 17 17 17 8 14 28 31 37 41 40 38 35 32 29 26 24 25 22 23 25 27 27 30 31
7 4 5 4 4 7 6 9 5 2 2 5 1 8 5 7 10 8 16 12 13 10 8 5 11 20 31 39 37 38 37 36 33 31 32 34 32 23 26 30 25 25 28 31
8 9 6 6 8 8 5 6 6 3 3 4 2 1 6 1 7 17 15 10 8 8 9 9 10 20 25 29 35 35 34 34 32 33 34 34 30 27 27 28 29 30 30 30
3 1 6 7 2 5 7 5 5 4 2 5 9 8 4 5 9 6 8 3 4 3 5 5 5 10 14 20 27 30 32 32 35 34 34 33 32 31 27 29 30 30 29 30
2 5 3 4 6 3 3 6 2 3 1 8 3 3 7 7 8 8 10 2 2 1 3 3 2 6 12 19 24 23 25 26 32 33 34 33 33 33 33 34 35 34 32 32
9 8 11 8 12 8 9 8 6 7 4 5 1 8 6 9 11 9 7 3 5 7 3 3 4 7 13 18 23 23 24 24 29 32 32 33 33 34 34 35 39 39 37 36
6 7 1 3 2 10 7 7 5 2 2 2 5 8 7 10 11 9 6 2 7 6 6 5 4 9 12 16 22 24 23 24 28 31 29 29 29 29 30 32 36 38 37 36
5 4 0 1 3 2 5 7 3 2 3 5 5 6 7 6 10 7 5 7 6 3 3 4 5 10 14 17 20 22 22 26 31 32 30 31 31 31 31 32 35 36 36 35
4 4 1 3 6 10 4 5 2 4 4 5 2 8 8 9 8 7 6 7 5 2 3 5 5 9 12 14 19 24 26 30 33 31 31 31 31 30 30 31 34 35 35 34
7 2 11 9 3 2 1 4 6 5 5 4 2 15 4 5 2 8 7 6 3 3 3 4 5 6 10 17 21 27 30 32 33 33 32 32 32 33 32 32 34 36 36 34
7 4 2 2 1 0 5 5 13 3 3 9 6 13 1 3 2 4 5 5 5 3 4 4 4 7 14 19 21 26 31 34 34 33 34 34 35 35 36 36 35 36 36 37
8 6 7 9 3 5 6 8 13 18 7 10 16 24 6 4 5 6 7 7 8 7 7 6 6 7 16 20 22 27 30 33 34 34 33 35 36 37 37 37 36 36 38 40
2 3 5 14 4 2 5 7 14 19 27 13 31 16 30 13 8 10 7 7 8 8 8 9 9 8 16 19 23 26 30 35 36 36 35 38 39 38 35 35 35 35 38 42
6 5 4 4 10 7 9 8 11 18 24 20 29 24 21 7 7 2 10 9 9 9 10 11 9 9 14 22 25 27 30 35 37 37 38 35 37 36 35 34 35 35 38 41
6 4 4 15 8 10 10 25 15 11 14 19 22 33 24 7 9 7 11 9 10 11 10 8 10 11 17 24 26 26 27 29 33 34 34 36 36 35 35 35 34 35 37 41
6 11 6 10 1 16 11 6 21 23 26 20 22 28 21 8 7 11 12 5 11 9 8 8 7 12 18 20 21 22 22 28 30 29 31 34 36 34 33 33 34 34 35 39
16 11 8 7 12 7 7 6 9 11 22 21 23 26 28 21 3 18 9 12 10 4 4 6 11 15 16 16 15 18 22 25 26 28 28 30 31 30 30 30 31 31 31 30
12 16 11 8 8 9 6 3 3 4 13 16 17 25 25 8 7 17 5 4 2 2 5 8 10 9 7 8 10 16 20 21 21 24 26 29 30 31 31 29 28 29 30 31
3 4 16 16 14 9 8 6 4 8 10 2 10 19 18 9 6 1 1 2 2 3 5 5 3 0 2 6 12 14 15 18 18 19 20 23 26 28 27 26 27 29 28 30
6 6 7 7 10 16 2 2 8 7 6 2 3 4 4 3 5 5 7 4 5 3 3 2 3 5 7 11 14 15 15 13 14 15 17 20 22 23 24 26 25 27 29 27
4 4 2 5 2 4 4 8 9 2 4 6 8 4 5 6 6 5 5 4 2 1 1 2 6 9 9 11 11 14 14 17 18 20 20 20 20 21 23 25 26 26 28 28
8 12 7 4 10 15 14 9 7 5 8 5 5 8 5 5 5 4 2 2 1 2 3 5 9 10 9 8 9 13 18 17 18 18 19 20 21 21 20 20 24 23 25 25
4 2 4 8 5 6 4 7 10 9 7 7 6 5 7 8 3 2 2 2 2 3 4 9 12 14 11 12 13 17 18 19 19 18 18 17 17 19 20 19 19 20 22 24
5 6 4 3 7 9 16 12 2 7 7 7 8 5 6 5 5 4 3 2 3 5 8 11 12 14 13 14 16 16 16 18 21 20 20 19 19 19 20 21 15 14 15 17
Wind_Direction
10 109 191 218 185 132 137 182 231 251 248 193 233 247 267 264 238 257 260 251 250 248 251 241 241 231 223 220 218 216 212 211 208 205 197 201 205 207 206 208 207 207 210 210
49 224 228 103 165 172 159 178 249 275 249 187 273 255 254 261 249 240 249 255 246 242 247 233 224 225 220 217 215 213 212 211 211 212 201 203 203 203 205 207 207 207 208 207
180 205 124 157 154 160 211 192 214 229 327 247 311 276 241 279 253 258 251 248 255 246 251 227 203 218 217 214 215 214 212 211 210 209 204 201 199 197 198 200 205 206 207 207
230 212 153 165 191 163 238 206 187 197 76 253 203 287 263 250 253 254 259 247 251 242 244 225 205 212 215 219 215 213 211 212 210 209 204 201 197 193 202 202 205 206 204 203
231 171 174 183 196 167 232 134 167 160 186 343 205 219 267 33 258 256 264 262 257 251 235 234 212 220 223 217 213 210 211 211 207 207 208 209 210 210 211 209 203 198 194 192
233 69 167 197 118 160 141 84 56 52 89 271 198 194 226 189 214 264 267 337 3 307 274 273 254 223 217 215 209 202 201 203 210 206 208 211 211 211 202 199 198 195 192 190
126 211 187 150 88 36 146 111 294 316 357 244 17 240 259 270 237 229 248 118 108 341 318 311 200 178 182 190 195 193 198 198 204 206 210 211 216 215 213 206 202 195 191 189
193 260 168 191 197 172 197 165 174 213 215 275 26 241 241 234 257 258 286 293 252 291 310 264 238 210 193 194 192 190 198 202 205 208 211 215 218 219 215 212 209 204 198 196
173 263 242 155 141 156 189 203 192 52 89 1 226 285 285 270 276 271 258 240 261 259 275 264 207 205 199 200 197 193 200 202 204 206 214 215 218 216 218 214 211 206 203 198
209 273 162 186 121 10 168 168 86 326 203 253 262 271 229 249 248 256 221 225 254 229 235 229 209 207 204 205 204 199 204 201 201 205 213 217 217 218 219 214 211 209 205 199
151 146 185 105 213 173 151 205 170 138 157 186 294 261 215 223 210 191 192 174 197 180 209 232 222 209 209 202 204 198 203 201 203 206 212 214 216 217 218 220 217 211 207 200
203 174 235 203 206 236 344 237 162 146 217 242 168 264 167 214 145 161 176 216 221 167 227 229 225 209 215 206 201 207 206 207 210 206 210 212 214 214 216 216 216 213 208 200
174 194 184 266 103 281 207 201 211 118 95 213 162 261 322 345 42 245 183 205 216 205 253 258 245 223 224 218 207 210 210 211 215 211 211 211 213 214 214 214 214 212 209 200
123 169 212 235 205 143 188 192 204 209 218 228 232 245 231 182 244 246 219 215 217 217 224 226 233 227 232 223 216 216 215 215 216 213 210 211 213 216 216 215 213 211 206 202
352 225 224 251 331 315 197 202 211 209 226 213 252 240 252 232 220 228 226 223 221 232 229 231 238 228 229 229 226 224 221 216 214 210 209 210 216 215 214 212 212 208 206 204
166 250 198 250 269 241 251 241 219 222 237 237 253 259 255 212 221 218 250 252 241 236 239 238 231 225 226 226 227 224 219 216 212 206 208 209 213 212 213 212 208 206 204 203
180 185 201 260 232 246 247 234 231 228 235 224 242 246 261 231 207 231 246 227 243 251 246 244 234 230 236 239 240 223 219 216 209 208 208 208 210 208 209 211 208 204 201 201
226 209 203 246 162 248 244 178 214 221 235 220 245 256 259 232 215 230 243 187 238 239 244 252 258 264 271 269 251 240 224 217 209 204 206 208 210 206 204 203 202 201 196 196
217 225 245 248 246 271 273 204 160 182 250 231 229 252 263 262 103 267 181 215 240 260 268 268 282 283 282 270 250 216 205 206 200 201 204 207 205 199 201 196 195 193 189 187
219 222 224 226 240 245 239 289 27 101 244 238 216 239 250 250 240 263 142 151 162 271 288 295 302 303 294 266 216 195 192 197 191 197 203 207 206 205 203 200 192 190 188 189
162 209 235 238 250 250 259 154 168 198 248 208 201 226 242 226 227 105 173 236 241 250 271 290 297 218 202 184 177 175 182 193 204 202 203 203 204 205 204 195 190 190 188 194
231 206 216 224 242 252 6 339 192 324 310 255 208 244 235 207 205 235 239 226 232 267 327 341 127 116 141 159 168 163 174 181 185 185 186 188 192 190 189 189 186 186 184 183
227 249 248 231 234 236 218 218 241 177 291 312 310 302 236 172 213 223 248 218 179 90 25 104 143 121 131 155 164 155 158 163 166 169 173 175 180 185 189 187 181 176 183 183
260 242 248 258 232 247 282 291 268 224 185 275 268 306 294 244 225 213 248 247 141 61 90 122 128 113 108 132 146 148 152 158 155 160 161 165 171 171 180 187 187 179 182 184
217 78 229 260 309 326 321 314 286 268 234 226 235 228 260 275 259 213 237 254 125 141 147 149 144 133 128 135 139 149 153 155 156 158 158 162 171 173 172 185 192 192 200 196
176 202 238 256 246 266 270 273 46 307 261 226 226 245 246 247 247 161 181 182 167 153 135 130 132 132 128 136 138 145 156 169 161 155 160 167 167 170 173 167 150 196 204 201